NOAA 16 DEB

Satellite information

Favourite Embed

Satellite Type and Status

DEBRISIN ORBIT

Key statistics

Satellite NOAA 16 DEB at a glance.

Uptime

8993

Days in orbit

Revolutions

≈ 14.7

Per day

Orbit

SSO

Sun Synchronous Orbit

Inclination

98.9

Latest

Satellite identification and parameters

Extended collection of information and parameters for NOAA 16 DEB.

Object identification

Identified? True

Debris? True

Object name: NOAA 16 DEB

International designator: 2000-055TX

Object number (NORAD): 42427

Object ID (CCSDS): 42427

Country: UNITED STATES OF AMERICA (US)

Current information (Y/N): Y

RCS size: SMALL

Orbital parameters

Period: 98.007 minutes

Inclination: 98.9069 deg

SMA: 7041.475 km

Apoapsis: 693.945 km

Periapsis: 632.736 km

RAAN: 329.8763 deg

Eccentricy: 0.0043463

Argument of periapsis: 98.7462 deg

Mean anomaly: 261.8667 deg

Mean motion: 14.69289093 rev/day

Mean motion (dot): 0.00030926 rev/day2

B* drag term: 0.0051536 1/REarth

Two-line elements (TLE)

Creation date: April 17, 2025, 11:16 p.m.

Reference frame: TEME

Reference center: EARTH

Epoch: April 15, 2025, 9:01 p.m. UTC

TLE line 0: 0 NOAA 16 DEB

TLE line 1: 1 42427U 00055TX 25105.87623112 .00030926 00000-0 51536-2 0 9994

TLE line 2: 2 42427 98.9069 329.8763 0043463 98.7462 261.8667 14.69289093454714

Live tracking on map

Real-time ground track for satellite NOAA 16 DEB.

In-orbit conjunctions

A list of the most updated potential collisions computed for object NOAA 16 DEB.

Target Orbit TCA Probability of collision Miss distance Type
COSMOS 2251 DEB LEO 2024-11-10 06:03:41 0.0003759598 186.0 (m) DEBRIS
CZ-6A DEB SSO 2024-07-10 07:22:33 0.0002248413 51.0 (m) DEBRIS

Associated space launch

The NOAA K, L and M POES satellites begin the fifth generation of improved environmental monitoring in support of NOAA missions. The instrument payload has significant improvements and additions/deletions. The instrument changes have effected the spacecraft subsystems and data formats.

NOAA 16 DEB was lifted into orbit during the mission ‘Titan II SLV | NOAA 16’, on board a Titan II SLV space rocket.

The launch took place on Sept. 21, 2000, 10:22 a.m. from Space Launch Complex 4W.

For more information about the launch, click the button.

Launch to space Titan II SLV | NOAA 16
Titan II SLV | NOAA 16

Agency: N/A

Status: Launch Successful

Launch date: Sept. 21, 2000, 10:22 a.m. UTC

Rocket: Titan II SLV

Launch pad: Space Launch Complex 4W

Location: Vandenberg SFB, CA, USA

...

Latest news about this satellite

There are no fresh news available about this satellite. Check back as we update our databases every day.


Newsletter sign-up

Weekly statistics, charts and insights to help you stay on top of the space industry.